Location: John Bryan Observatory, Ohio
(39.7800°N, 83.8500°E)
Time: 10:48:33
(UTC-04:00)

ISS - Visible Passes

Search period start: 20 September 2017 00:00
Search period end: 30 September 2017 00:00
Orbit: 402 x 407 km, 51.6° (Epoch: 21 September)

Date Brightness Start Highest point End Pass type
(mag) Time Alt. Az. Time Alt. Az. Time Alt. Az.
20 Sep -3.3 18:21:30 55° ESE 18:21:30 55° ESE 18:24:09 10° SE visible
21 Sep -2.2 19:05:11 19° SW 19:05:11 19° SW 19:07:13 10° S visible
24 Sep -2.5 09:56:08 10° SSW 09:58:00 29° SSW 09:58:00 29° SSW visible
25 Sep -2.6 09:04:22 10° S 09:07:03 24° SE 09:08:37 17° E visible
25 Sep -1.0 10:40:20 10° W 10:41:19 17° W 10:41:19 17° W visible
26 Sep -3.6 09:47:43 10° WSW 09:50:57 67° NW 09:51:41 48° NNE visible
27 Sep -3.8 08:55:22 10° SW 08:58:35 61° SE 09:01:50 10° ENE visible
27 Sep -1.1 10:32:44 10° WNW 10:34:31 19° NW 10:34:31 19° NW visible
28 Sep -2.1 09:39:46 10° W 09:42:43 31° NNW 09:44:31 18° NNE visible
29 Sep -3.1 08:47:01 10° WSW 08:50:13 53° NW 08:53:27 10° NE visible
29 Sep -0.9 10:25:24 10° NW 10:27:01 14° NNW 10:27:01 14° NNW visible
